Victoria, TX

6:33 PM CST on December 10, 2019 (GMT -0600)
Victoria Regional

Weather History for KVCT - August, 2019

Change the Weather History Date:

Saturday, August 17, 2019

  Actual Average Record
Temperature  
Mean Temperature 90 °F 85 °F  
Max Temperature 101 °F 95 °F 105 °F (1951)
Min Temperature 79 °F 74 °F 63 °F (2004)
Degree Days  
Heating Degree Days 0 0  
Month to date heating degree days 0 0  
Since 1 June heating degree days 0 0  
Since 1 July heating degree days 0 0  
Cooling Degree Days 25 20  
Month to date cooling degree days 395 340  
Year to date cooling degree days 2348 2093  
Since 1 June cooling degree days 1580 1434  
Growing Degree Days 40 (Base 50)    
Moisture  
Dew Point 74 °F    
Average Humidity 65    
Maximum Humidity 91    
Minimum Humidity 39    
Precipitation  
Precipitation 0.00 in 0.09 in 1.26 in (2016)
Month to date precipitation 0.10 1.34  
Year to date precipitation 14.74 25.36  
Snow  
Snow 0.00 in 0.00 in 0.00 in (2002)
Month to date snowfall 0.0 0.0  
Since 1 June snowfall 0.0 0.0  
Since 1 July snowfall 0.0 0.0  
Snow Depth 0.00 in    
Sea Level Pressure  
Sea Level Pressure 29.87 in    
Wind  
Wind Speed 11 mph (South)    
Max Wind Speed 25 mph    
Max Gust Speed 31 mph    
Visibility 10 miles    
Events      
T = Trace of Precipitation, MM = Missing Value Source: NWS Daily Summary

Daily Weather History Graph

Daily Weather History Graph

Search for Another Location

Airport or City:

Astronomy

Aug. 17, 2019 Rise Set
Actual Time 6:57 AM CDT 8:05 PM CDT
Civil Twilight 6:32 AM CDT 8:30 PM CDT
Nautical Twilight 6:03 AM CDT 8:59 PM CDT
Astronomical Twilight 5:33 AM CDT 9:29 PM CDT
Moon 9:41 PM CDT (8/17) 8:42 AM CDT (8/17)
Length of Visible Light 13h 57m
Length of Day
13h 07m
Waning Gibbous, 96% of the Moon is Illuminated
Aug 17
Waning Gibbous
Aug 23
Last Quarter
Aug 30
New
Sep 5
First Quarter
Sep 13
Full

Hourly Weather History & Observations

Time (CDT) Temp. Heat Index Dew Point Humidity Pressure Visibility Wind Dir Wind Speed Gust Speed Precip Events Conditions
12:51 AM 81.0 °F 87.3 °F 75.9 °F 85% 29.91 in 10.0 mi SSE 6.9 mph - N/A   Clear
1:51 AM 80.1 °F 85.1 °F 75.0 °F 85% 29.91 in 10.0 mi SSE 4.6 mph - N/A   Clear
2:51 AM 79.0 °F - 75.0 °F 88% 29.91 in 10.0 mi SSE 3.5 mph - N/A   Partly Cloudy
3:51 AM 79.0 °F - 75.9 °F 90% 29.90 in 9.0 mi Calm Calm - N/A   Partly Cloudy
4:51 AM 79.0 °F - 75.9 °F 90% 29.88 in 10.0 mi South 3.5 mph - N/A   Clear
5:51 AM 79.0 °F - 75.9 °F 90% 29.88 in 10.0 mi SSE 4.6 mph - N/A   Clear
6:51 AM 79.0 °F - 75.9 °F 90% 29.88 in 9.0 mi SSE 4.6 mph - N/A   Partly Cloudy
7:51 AM 81.0 °F 87.9 °F 77.0 °F 88% 29.89 in 7.0 mi South 5.8 mph - N/A   Clear
8:51 AM 86.0 °F 96.9 °F 77.0 °F 74% 29.89 in 10.0 mi SSW 11.5 mph - N/A   Partly Cloudy
9:51 AM 89.1 °F 99.1 °F 75.0 °F 63% 29.91 in 10.0 mi South 15.0 mph - N/A   Partly Cloudy
10:51 AM 91.0 °F 100.4 °F 73.9 °F 57% 29.91 in 10.0 mi SW 12.7 mph - N/A   Partly Cloudy
11:51 AM 93.0 °F 101.9 °F 73.0 °F 52% 29.90 in 10.0 mi SSW 12.7 mph - N/A   Mostly Cloudy
12:51 PM 97.0 °F 104.8 °F 71.1 °F 43% 29.88 in 10.0 mi South 11.5 mph 24.2 mph N/A   Scattered Clouds
1:51 PM 99.0 °F 106.2 °F 70.0 °F 39% 29.86 in 10.0 mi South 16.1 mph 26.5 mph N/A   Partly Cloudy
2:51 PM 99.0 °F 108.5 °F 72.0 °F 42% 29.84 in 10.0 mi South 18.4 mph 28.8 mph N/A   Scattered Clouds
3:51 PM 98.1 °F 108.0 °F 73.0 °F 44% 29.83 in 10.0 mi South 17.3 mph 25.3 mph N/A   Partly Cloudy
4:51 PM 96.1 °F 105.6 °F 73.0 °F 47% 29.82 in 10.0 mi South 17.3 mph - N/A   Scattered Clouds
5:51 PM 93.9 °F 103.4 °F 73.0 °F 51% 29.81 in 10.0 mi South 16.1 mph 21.9 mph N/A   Partly Cloudy
6:51 PM 91.9 °F 101.3 °F 73.9 °F 55% 29.81 in 10.0 mi South 17.3 mph - N/A   Clear
7:51 PM 88.0 °F 96.5 °F 73.9 °F 63% 29.82 in 10.0 mi SSE 17.3 mph - N/A   Mostly Cloudy
8:51 PM 86.0 °F 93.0 °F 73.0 °F 65% 29.82 in 10.0 mi SSE 17.3 mph - N/A   Clear
9:51 PM 84.0 °F 91.9 °F 75.0 °F 74% 29.84 in 10.0 mi SSE 9.2 mph - N/A   Clear
10:51 PM 82.9 °F 90.8 °F 75.9 °F 79% 29.86 in 10.0 mi SSE 10.4 mph - N/A   Clear
11:51 PM 82.0 °F 89.4 °F 75.9 °F 82% 29.87 in 10.0 mi SSE 10.4 mph - N/A   Clear